Location: Cuzcurrita-R�o Tir�n
(42.5415°N, 2.9642°W)
Time: 01:23:04
(UTC+00:00)

Cosmos 1943 - Pass Details

Date: 17 January 2021
Orbit: 834 x 849 km, 71.0° (Epoch: 08 March)

Event Time Altitude Azimuth Distance (km) Brightness Sun altitude
Rises 18:21:09 0° 335° (NNW) 3,416 6.5 -13.6°
Reaches altitude 10° 18:23:37 10° 335° (NNW) 2,475 5.8 -14.0°
Maximum altitude 18:29:18 86° 248° (WSW) 851 3.2 -15.0°
Drops below altitude 10° 18:34:57 10° 159° (SSE) 2,449 5.5 -16.0°
Sets 18:37:22 0° 159° (SSE) 3,377 6.3 -16.5°
